Leakey, Texas, United States (78873)
Lat: 29.73N, Lon: 99.76W
Wx Zone: TXZ185
Local Info
Past Weather Observations for Saturday, October 18, 2014

NOTE: This archive is for the closest National Weather Service station to Leakey. Information may differ from the station used for current weather conditions.

Click here for Long-term Archive

Time Weather Temperature Dewpoint Humidity Pressure Winds Precip Visibility
23:50
Partly Cloudy
70°F / 21°C 57°F / 14°C 64% 30.12 in
(1020 mb)
ESE 5.8 mph
(ESE 9 kph)
- 10SM
23:30
Partly Cloudy
70°F / 21°C 57°F / 14°C 64% 30.12 in
(1020 mb)
ESE 5.8 mph
(ESE 9 kph)
- 10SM
23:10
Partly Cloudy
70°F / 21°C 57°F / 14°C 64% 30.12 in
(1020 mb)
E 5.8 mph
(E 9 kph)
- 10SM
22:50
Mostly Cloudy
72°F / 22°C 57°F / 14°C 61% 30.12 in
(1020 mb)
E 6.9 mph
(E 11 kph)
- 10SM
22:30
Partly Cloudy
72°F / 22°C 57°F / 14°C 61% 30.12 in
(1020 mb)
E 5.8 mph
(E 9 kph)
- 10SM
22:10
Mostly Cloudy
72°F / 22°C 57°F / 14°C 61% 30.12 in
(1020 mb)
E 5.8 mph
(E 9 kph)
- 10SM
21:50
Mostly Cloudy
72°F / 22°C 57°F / 14°C 61% 30.12 in
(1020 mb)
E 6.9 mph
(E 11 kph)
- 10SM
21:30
Partly Cloudy
72°F / 22°C 57°F / 14°C 61% 30.12 in
(1020 mb)
E 5.8 mph
(E 9 kph)
- 10SM
21:10
Clear
72°F / 22°C 57°F / 14°C 61% 30.12 in
(1020 mb)
E 6.9 mph
(E 11 kph)
- 10SM
20:50
Partly Cloudy
72°F / 22°C 57°F / 14°C 61% 30.12 in
(1020 mb)
ENE 5.8 mph
(ENE 9 kph)
- 10SM
20:30
Partly Cloudy
72°F / 22°C 55°F / 13°C 57% 30.12 in
(1020 mb)
ENE 4.6 mph
(ENE 7 kph)
- 10SM
20:10
Clear
72°F / 22°C 55°F / 13°C 57% 30.09 in
(1019 mb)
ENE 5.8 mph
(ENE 9 kph)
- 10SM
19:50
Clear
72°F / 22°C 54°F / 12°C 53% 30.09 in
(1019 mb)
ENE 5.8 mph
(ENE 9 kph)
- 10SM
19:30
Clear
72°F / 22°C 54°F / 12°C 53% 30.09 in
(1019 mb)
ENE 4.6 mph
(ENE 7 kph)
- 10SM
19:10
Clear
73°F / 23°C 54°F / 12°C 50% 30.09 in
(1019 mb)
Calm - 10SM
18:50
Clear
73°F / 23°C 54°F / 12°C 50% 30.06 in
(1018 mb)
Calm - 10SM
18:30
Clear
75°F / 24°C 54°F / 12°C 47% 30.06 in
(1018 mb)
ENE 3.5 mph
(ENE 6 kph)
- 10SM
18:10
Clear
75°F / 24°C 54°F / 12°C 47% 30.06 in
(1018 mb)
Calm - 10SM
17:50
Clear
79°F / 26°C 54°F / 12°C 42% 30.06 in
(1018 mb)
E 4.6 mph
(E 7 kph)
- 10SM
17:30
Clear
81°F / 27°C 52°F / 11°C 37% 30.06 in
(1018 mb)
E 8.1 mph
(E 13 kph)
- 10SM
17:10
Clear
81°F / 27°C 52°F / 11°C 37% 30.06 in
(1018 mb)
E 4.6 mph
(E 7 kph)
- 10SM
16:50
Clear
81°F / 27°C 52°F / 11°C 37% 30.06 in
(1018 mb)
E 5.8 mph
(E 9 kph)
- 10SM
16:30
Partly Cloudy
82°F / 28°C 54°F / 12°C 37% 30.06 in
(1018 mb)
ENE 6.9 mph
(ENE 11 kph)
- 10SM
16:10
Partly Cloudy
82°F / 28°C 54°F / 12°C 37% 30.06 in
(1018 mb)
ENE 9.2 mph
(ENE 15 kph)
- 10SM
15:50
Mostly Cloudy
82°F / 28°C 54°F / 12°C 37% 30.06 in
(1018 mb)
E 8.1 mph
(E 13 kph)
- 10SM
15:30
Partly Cloudy
81°F / 27°C 54°F / 12°C 39% 30.06 in
(1018 mb)
E 6.9 mph
(E 11 kph)
- 10SM
15:10
Partly Cloudy
82°F / 28°C 54°F / 12°C 37% 30.06 in
(1018 mb)
ENE 5.8 mph
(ENE 9 kph)
- 10SM
14:50
Partly Cloudy
81°F / 27°C 54°F / 12°C 39% 30.06 in
(1018 mb)
NE 3.5 mph
(NE 6 kph)
- 10SM
14:30
Mostly Cloudy
82°F / 28°C 55°F / 13°C 40% 30.06 in
(1018 mb)
ENE 4.6 mph
(ENE 7 kph)
- 10SM
14:10
Partly Cloudy
82°F / 28°C 54°F / 12°C 37% 30.06 in
(1018 mb)
ENE 8.1 mph
(ENE 13 kph)
- 10SM
13:50
Clear
81°F / 27°C 54°F / 12°C 39% 30.06 in
(1018 mb)
ENE 8.1 mph
(ENE 13 kph)
- 10SM
13:30
Partly Cloudy
82°F / 28°C 55°F / 13°C 40% 30.06 in
(1018 mb)
ENE 4.6 mph
(ENE 7 kph)
- 10SM
13:10
Mostly Cloudy
81°F / 27°C 54°F / 12°C 39% 30.06 in
(1018 mb)
E 10.4 mph
(E 17 kph)
- 10SM
12:50
Mostly Cloudy
79°F / 26°C 57°F / 14°C 48% 30.09 in
(1019 mb)
ENE 9.2 mph
(ENE 15 kph)
- 10SM
12:30
Mostly Cloudy
81°F / 27°C 55°F / 13°C 42% 30.09 in
(1019 mb)
E 8.1 mph
(E 13 kph)
- 10SM
12:10
Partly Cloudy
79°F / 26°C 57°F / 14°C 48% 30.09 in
(1019 mb)
NNW 3.5 mph
(NNW 6 kph)
- 10SM
11:50
Mostly Cloudy
81°F / 27°C 57°F / 14°C 45% 30.09 in
(1019 mb)
E 8.1 mph
(E 13 kph)
- 10SM
11:30
Mostly Cloudy
81°F / 27°C 59°F / 15°C 48% 30.12 in
(1020 mb)
Calm - 10SM
11:10
Partly Cloudy
77°F / 25°C 57°F / 14°C 51% 30.12 in
(1020 mb)
ENE 6.9 mph
(ENE 11 kph)
- 10SM
10:50
Partly Cloudy
77°F / 25°C 59°F / 15°C 54% 30.12 in
(1020 mb)
E 9.2 mph
(E 15 kph)
- 10SM
10:30
Mostly Cloudy
79°F / 26°C 63°F / 17°C 58% 30.12 in
(1020 mb)
ESE 9.2 mph
(ESE 15 kph)
- 10SM
10:10
Partly Cloudy
75°F / 24°C 63°F / 17°C 65% 30.12 in
(1020 mb)
ESE 9.2 mph
(ESE 15 kph)
- 10SM
09:50
Partly Cloudy
75°F / 24°C 63°F / 17°C 65% 30.12 in
(1020 mb)
SE 5.8 mph
(SE 9 kph)
- 10SM
09:30
Mostly Cloudy
75°F / 24°C 64°F / 18°C 69% 30.12 in
(1020 mb)
SE 4.6 mph
(SE 7 kph)
- 10SM
09:10
Mostly Cloudy
73°F / 23°C 64°F / 18°C 74% 30.09 in
(1019 mb)
SE 6.9 mph
(SE 11 kph)
- 10SM
08:50
Mostly Cloudy
72°F / 22°C 64°F / 18°C 78% 30.09 in
(1019 mb)
E 8.1 mph
(E 13 kph)
- 10SM
08:30
Overcast
72°F / 22°C 64°F / 18°C 78% 30.09 in
(1019 mb)
E 8.1 mph
(E 13 kph)
- 10SM
08:10
Overcast
70°F / 21°C 66°F / 19°C 88% 30.09 in
(1019 mb)
ESE 6.9 mph
(ESE 11 kph)
- 10SM
07:50
Overcast
70°F / 21°C 66°F / 19°C 88% 30.06 in
(1018 mb)
SE 5.8 mph
(SE 9 kph)
- 10SM
07:30
Overcast
68°F / 20°C 66°F / 19°C 94% 30.06 in
(1018 mb)
Calm - 9SM
07:10
Overcast
66°F / 19°C 66°F / 19°C 100% 30.06 in
(1018 mb)
ESE 3.5 mph
(ESE 6 kph)
- 9SM
06:50
Mostly Cloudy
66°F / 19°C 66°F / 19°C 100% 30.06 in
(1018 mb)
SE 4.6 mph
(SE 7 kph)
- 7SM
06:30
Mostly Cloudy
66°F / 19°C 66°F / 19°C 100% 30.06 in
(1018 mb)
SE 6.9 mph
(SE 11 kph)
- 9SM
06:10
Mostly Cloudy
66°F / 19°C 66°F / 19°C 100% 30.04 in
(1017 mb)
SE 4.6 mph
(SE 7 kph)
- 8SM
05:50
Mostly Cloudy
66°F / 19°C 66°F / 19°C 100% 30.04 in
(1017 mb)
SE 5.8 mph
(SE 9 kph)
- 9SM
05:30
Overcast
66°F / 19°C 66°F / 19°C 100% 30.04 in
(1017 mb)
SE 6.9 mph
(SE 11 kph)
- 9SM
05:10
Overcast
66°F / 19°C 66°F / 19°C 100% 30.04 in
(1017 mb)
SE 6.9 mph
(SE 11 kph)
- 7SM
04:50
Mostly Cloudy
66°F / 19°C 64°F / 18°C 94% 30.04 in
(1017 mb)
SE 6.9 mph
(SE 11 kph)
- 7SM
04:30
Mostly Cloudy
66°F / 19°C 64°F / 18°C 94% 30.04 in
(1017 mb)
SE 8.1 mph
(SE 13 kph)
- 9SM
04:10
Overcast
66°F / 19°C 64°F / 18°C 94% 30.04 in
(1017 mb)
SE 9.2 mph
(SE 15 kph)
- 7SM
03:50
Overcast
66°F / 19°C 64°F / 18°C 94% 30.04 in
(1017 mb)
SE 9.2 mph
(SE 15 kph)
- 10SM
03:30
Overcast
64°F / 18°C 63°F / 17°C 94% 30.01 in
(1016 mb)
SSE 10.4 mph
(SSE 17 kph)
- 10SM
03:10
Overcast
64°F / 18°C 63°F / 17°C 94% 30.01 in
(1016 mb)
SE 10.4 mph
(SE 17 kph)
- 10SM
02:50
Partly Cloudy
63°F / 17°C 61°F / 16°C 94% 30.04 in
(1017 mb)
SE 8.1 mph
(SE 13 kph)
- 10SM
02:30
Clear
63°F / 17°C 57°F / 14°C 83% 30.04 in
(1017 mb)
SE 4.6 mph
(SE 7 kph)
- 10SM
02:10
Clear
63°F / 17°C 57°F / 14°C 83% 30.04 in
(1017 mb)
SE 5.8 mph
(SE 9 kph)
- 10SM
01:50
Clear
64°F / 18°C 57°F / 14°C 78% 30.04 in
(1017 mb)
SE 6.9 mph
(SE 11 kph)
- 10SM
01:30
Clear
64°F / 18°C 57°F / 14°C 78% 30.04 in
(1017 mb)
SE 6.9 mph
(SE 11 kph)
- 10SM
01:10
Clear
64°F / 18°C 54°F / 12°C 68% 30.04 in
(1017 mb)
SE 8.1 mph
(SE 13 kph)
- 10SM
00:50
Clear
64°F / 18°C 54°F / 12°C 68% 30.04 in
(1017 mb)
SE 8.1 mph
(SE 13 kph)
- 10SM
00:30
Clear
64°F / 18°C 54°F / 12°C 68% 30.04 in
(1017 mb)
SE 6.9 mph
(SE 11 kph)
- 10SM
00:10
Clear
64°F / 18°C 52°F / 11°C 64% 30.04 in
(1017 mb)
SE 5.8 mph
(SE 9 kph)
- 10SM
Time Weather Temperature Dewpoint Humidity Pressure Winds Precip Visibility


Weather for websites

WeatherForYou.com, LLC is not responsible for any damages or problems caused by this service. Current weather conditions are obtained from the closest station including government and personal stations which may have varying degrees of accuracy. Weather forecasts are derived from the NOAA NDFD. Like all things, this site belongs to Jesus Christ... He just trusts me to maintain it. If you have any questions or comments email webmaster@weatherforyou.com

Copyright © 2014, WeatherForYou.com LLC. All rights reserved.